EW9528 Weather Reports


Display with metric or nautical units.
time (UTC)temp
F
wind
direction
speed
MPH
gust
MPH
rain 1hr
in
rain 24hr
in
rain mn
in
humidity
%
barometer
mb
20260904173545 75 133 6.0 9.0 0.00 0.00 0.00 31 1018.2
20260904171544 74 155 7.0 14.0 0.00 0.00 0.00 31 1018.2
20260904170544 74 155 10.0 16.0 0.00 0.00 0.00 29 1018.1
20260904165642 73 141 4.0 10.0 0.00 0.00 0.00 31 1018.0
20260904164643 72 165 5.0 10.0 0.00 0.00 0.00 33 1018.0
20260904163643 73 125 7.0 11.0 0.00 0.00 0.00 30 1018.2
20260904162644 73 157 3.0 7.0 0.00 0.00 0.00 29 1018.2
20260904161743 73 146 5.0 9.0 0.00 0.00 0.00 29 1018.1
20260904160743 73 166 9.0 14.0 0.00 0.00 0.00 28 1018.2
20260904155751 72 167 6.0 9.0 0.00 0.00 0.00 29 1018.2
20260904154842 72 188 4.0 5.0 0.00 0.00 0.00 29 1018.0
20260904153845 72 154 4.0 7.0 0.00 0.00 0.00 27 1018.0
20260904152843 72 166 8.0 12.0 0.00 0.00 0.00 28 1018.0
20260904150941 71 176 6.0 11.0 0.00 0.00 0.00 28 1018.0
20260904145943 70 162 2.0 7.0 0.00 0.00 0.00 31 1018.0
20260904144944 69 123 0.0 3.0 0.00 0.00 0.00 33 1018.2
20260904143943 67 176 2.0 3.0 0.00 0.00 0.00 43 1018.2
20260904142944 66 22 2.0 3.0 0.00 0.00 0.00 48 1017.9
20260904141002 63 337 0.0 0.0 0.00 0.00 0.00 54 1018.0
20260904140041 62 360 0.0 0.0 0.00 0.00 0.00 56 1017.8
20260904134143 60 360 0.0 0.0 0.00 0.00 0.00 49 1017.8
20260904133145 61 360 1.0 2.0 0.00 0.00 0.00 41 1017.4
20260904132141 61 315 1.0 2.0 0.00 0.00 0.00 35 1017.3
20260904131145 63 288 0.0 1.0 0.00 0.00 0.00 31 1017.3
20260904130159 64 180 0.0 2.0 0.00 0.00 0.00 29 1017.1
20260904124144 65 200 4.0 6.0 0.00 0.00 0.00 30 1016.8
20260904123143 65 188 3.0 4.0 0.00 0.00 0.00 31 1016.6
20260904121143 65 197 5.0 8.0 0.00 0.00 0.00 29 1016.5
20260904120242 65 195 2.0 3.0 0.00 0.00 0.00 29 1016.4
20260904115244 66 189 3.0 5.0 0.00 0.00 0.00 27 1016.3
20260904114242 66 183 5.0 6.0 0.00 0.00 0.00 27 1016.3
20260904112341 66 180 6.0 8.0 0.00 0.00 0.00 28 1016.1
20260904111359 67 183 5.0 8.0 0.00 0.00 0.00 29 1016.2
20260904105444 66 197 4.0 6.0 0.00 0.00 0.00 35 1016.0
20260904104443 66 169 6.0 11.0 0.00 0.00 0.00 36 1015.9
20260904103443 66 210 5.0 8.0 0.00 0.00 0.00 32 1015.7
20260904102457 66 225 3.0 4.0 0.00 0.00 0.00 31 1015.9
20260904101543 66 195 3.0 5.0 0.00 0.00 0.00 31 1015.9
20260904095643 67 220 4.0 6.0 0.00 0.00 0.00 32 1015.5
20260904094644 66 173 3.0 9.0 0.00 0.00 0.00 35 1015.3
20260904093643 66 180 4.0 7.0 0.00 0.00 0.00 36 1015.3
20260904092542 65 180 4.0 6.0 0.00 0.00 0.00 38 1015.2
20260904091544 66 180 3.0 5.0 0.00 0.00 0.00 37 1015.3
20260904090545 66 180 4.0 5.0 0.00 0.00 0.00 37 1015.2
20260904085642 66 185 6.0 9.0 0.00 0.00 0.00 39 1015.4
20260904084644 67 181 5.0 7.0 0.00 0.00 0.00 38 1015.2
20260904083742 68 188 5.0 8.0 0.00 0.00 0.00 34 1015.0
20260904082743 68 186 6.0 9.0 0.00 0.00 0.00 32 1015.0
20260904081743 66 179 2.0 6.0 0.00 0.00 0.00 37 1014.9
20260904080745 65 180 1.0 3.0 0.00 0.00 0.00 38 1015.0
20260904075843 67 247 0.0 2.0 0.00 0.00 0.00 35 1015.0
20260904074844 68 204 2.0 4.0 0.00 0.00 0.00 31 1014.8
20260904073843 68 180 4.0 5.0 0.00 0.00 0.00 34 1014.8
20260904072942 69 186 4.0 6.0 0.00 0.00 0.00 35 1014.7
20260904071945 69 180 5.0 8.0 0.00 0.00 0.00 35 1014.8
20260904070044 70 177 6.0 7.0 0.00 0.00 0.00 31 1014.6
20260904065043 70 173 6.0 9.0 0.00 0.00 0.00 31 1014.7
20260904064045 71 175 6.0 8.0 0.00 0.00 0.00 31 1014.4
20260904063044 71 180 4.0 6.0 0.00 0.00 0.00 31 1014.2
20260904061945 71 169 6.0 9.0 0.00 0.00 0.00 32 1014.1
20260904060944 72 166 8.0 11.0 0.00 0.00 0.00 30 1014.1
20260904060023 73 180 4.0 5.0 0.00 0.00 0.00 19 1014.1
20260904055026 74 157 1.0 2.0 0.00 0.00 0.00 16 1013.9
20260904054024 74 202 4.0 10.0 0.00 0.00 0.00 19 1013.9
20260904053122 75 180 1.0 4.0 0.00 0.00 0.00 15 1014.0
20260904051125 76 172 4.0 7.0 0.00 0.00 0.00 16 1014.0
20260904051040 76 180 3.0 7.0 0.00 0.00 0.00 15 1013.9
20260904045125 76 206 4.0 6.0 0.00 0.00 0.00 15 1013.8
20260904044124 76 196 6.0 9.0 0.00 0.00 0.00 16 1013.8
20260904040138 77 204 5.0 7.0 0.00 0.00 0.00 15 1013.5
20260904035138 77 219 7.0 13.0 0.00 0.00 0.00 15 1013.5
20260904034224 77 230 4.0 9.0 0.00 0.00 0.00 15 1013.5
20260904033322 78 204 6.0 8.0 0.00 0.00 0.00 15 1013.5
20260904031325 78 194 5.0 10.0 0.00 0.00 0.00 14 1013.2
20260904031222 78 221 7.0 11.0 0.00 0.00 0.00 14 1013.2
20260904024322 78 227 5.0 7.0 0.00 0.00 0.00 14 1013.2
20260904023324 78 230 6.0 10.0 0.00 0.00 0.00 15 1013.1
20260904022423 78 234 6.0 9.0 0.00 0.00 0.00 15 1013.1
20260904021424 79 227 5.0 9.0 0.00 0.00 0.00 14 1013.1
20260904020424 79 194 5.0 10.0 0.00 0.00 0.00 14 1012.9
20260904015524 79 223 5.0 7.0 0.00 0.00 0.00 15 1012.8
20260904014522 79 207 4.0 7.0 0.00 0.00 0.00 14 1012.9
20260904013524 80 221 6.0 13.0 0.00 0.00 0.00 14 1012.9
20260904011525 81 208 5.0 8.0 0.00 0.00 0.00 14 1012.9
20260904010523 82 220 8.0 16.0 0.00 0.00 0.00 14 1013.0
20260904003539 83 217 7.0 10.0 0.00 0.00 0.00 14 1013.3
20260904002523 84 220 8.0 14.0 0.00 0.00 0.00 13 1013.4
20260904000524 84 175 5.0 8.0 0.00 0.00 0.00 15 1013.3
20260903235623 83 155 4.0 8.0 0.00 0.00 0.00 14 1013.3
20260903233623 84 143 4.0 8.0 0.00 0.00 0.00 14 1013.3
20260903232623 83 155 5.0 9.0 0.00 0.00 0.00 14 1013.5
20260903231625 83 150 5.0 7.0 0.00 0.00 0.00 14 1013.5
20260903230723 83 173 3.0 11.0 0.00 0.00 0.00 15 1013.7
20260903224824 83 152 5.0 8.0 0.00 0.00 0.00 16 1013.9
20260903223824 83 157 8.0 14.0 0.00 0.00 0.00 16 1013.9
20260903222724 82 121 5.0 11.0 0.00 0.00 0.00 15 1014.4
20260903221726 83 139 8.0 15.0 0.00 0.00 0.00 15 1014.2
20260903215724 82 153 2.0 6.0 0.00 0.00 0.00 16 1014.7
20260903213822 82 184 8.0 13.0 0.00 0.00 0.00 17 1014.7
20260903212825 81 178 5.0 8.0 0.00 0.00 0.00 19 1015.0
20260903211824 81 144 4.0 9.0 0.00 0.00 0.00 18 1015.2
20260903210823 81 169 5.0 7.0 0.00 0.00 0.00 16 1015.3
20260903205823 81 122 7.0 15.0 0.00 0.00 0.00 15 1015.4
20260903204823 82 154 5.0 11.0 0.00 0.00 0.00 16 1015.5
20260903203825 82 166 6.0 9.0 0.00 0.00 0.00 15 1015.7
20260903200122 81 149 7.0 12.0 0.00 0.00 0.00 14 1016.3
20260903195125 81 199 6.0 9.0 0.00 0.00 0.00 15 1016.4
20260903194222 80 197 8.0 15.0 0.00 0.00 0.00 17 1016.5
20260903193224 79 210 5.0 14.0 0.00 0.00 0.00 20 1016.7
20260903192223 78 180 0.0 1.0 0.00 0.00 0.00 22 1017.1
20260903191224 78 146 6.0 12.0 0.00 0.00 0.00 19 1017.1
20260903185224 78 145 5.0 8.0 0.00 0.00 0.00 19 1017.3
20260903184322 77 168 4.0 7.0 0.00 0.00 0.00 20 1017.4
20260903183323 76 167 5.0 10.0 0.00 0.00 0.00 23 1017.4
20260903182324 76 125 8.0 15.0 0.00 0.00 0.00 20 1017.6
20260903180339 77 184 6.0 9.0 0.00 0.00 0.00 19 1018.2
20260903175423 77 155 7.0 11.0 0.00 0.00 0.00 19 1018.2
20260903174423 76 177 5.0 9.0 0.00 0.00 0.00 19 1018.2